Findlay, OH

11:33 PM EDT on September 18, 2019 (GMT -0400)
Findlay

Weather History for KFDY - July, 2019

Change the Weather History Date:

Wednesday, July 24, 2019

  Actual Average Record
Temperature  
Mean Temperature 70 °F -  
Max Temperature 81 °F 81 °F 98 °F (1965)
Min Temperature 59 °F 63 °F 52 °F (1962)
Cooling Degree Days 5    
Growing Degree Days 20 (Base 50)    
Moisture  
Dew Point 56 °F    
Average Humidity 64    
Maximum Humidity 90    
Minimum Humidity 35    
Precipitation  
Precipitation 0.00 in - - ()
Sea Level Pressure  
Sea Level Pressure 30.08 in    
Wind  
Wind Speed 5 mph (NNW)    
Max Wind Speed 12 mph    
Max Gust Speed -    
Visibility 10 miles    
Events      
Averages and records for this station are not official NWS values.
T = Trace of Precipitation, MM = Missing Value Source: NWS Daily Summary

Daily Weather History Graph

Daily Weather History Graph

Search for Another Location

Airport or City:

Astronomy

Jul. 24, 2019 Rise Set
Actual Time 6:22 AM EDT 8:58 PM EDT
Civil Twilight 5:51 AM EDT 9:30 PM EDT
Nautical Twilight 5:11 AM EDT 10:10 PM EDT
Astronomical Twilight 4:26 AM EDT 10:54 PM EDT
Moon 12:43 AM EDT (7/24) 1:36 PM EDT (7/24)
Length of Visible Light 15h 39m
Length of Day
14h 36m
Waning Gibbous, 54% of the Moon is Illuminated
Jul 24
Waning Gibbous
Jul 24
Last Quarter
Jul 31
New
Aug 7
First Quarter
Aug 15
Full

Hourly Weather History & Observations

Time (EDT) Temp. Dew Point Humidity Pressure Visibility Wind Dir Wind Speed Gust Speed Precip Events Conditions
12:53 AM 62.1 °F 57.0 °F 84% 30.03 in 10.0 mi North 6.9 mph - N/A   Clear
1:53 AM 61.0 °F 55.9 °F 83% 30.03 in 10.0 mi Calm Calm - N/A   Clear
2:53 AM 60.1 °F 55.9 °F 86% 30.04 in 10.0 mi WNW 5.8 mph - N/A   Clear
3:53 AM 60.1 °F 55.9 °F 86% 30.03 in 10.0 mi WNW 3.5 mph - N/A   Clear
4:53 AM 60.1 °F 55.9 °F 86% 30.03 in 10.0 mi NW 5.8 mph - N/A   Clear
5:53 AM 60.1 °F 55.9 °F 86% 30.04 in 10.0 mi NNW 3.5 mph - N/A   Clear
6:53 AM 59.0 °F 55.9 °F 90% 30.06 in 10.0 mi WNW 3.5 mph - N/A   Clear
7:53 AM 63.0 °F 57.9 °F 84% 30.08 in 10.0 mi NNW 3.5 mph - N/A   Clear
8:53 AM 66.0 °F 60.1 °F 81% 30.10 in 10.0 mi North 6.9 mph - N/A   Clear
9:53 AM 70.0 °F 60.1 °F 71% 30.11 in 10.0 mi NNW 4.6 mph - N/A   Clear
10:53 AM 72.0 °F 60.1 °F 66% 30.12 in 10.0 mi Variable 4.6 mph - N/A   Mostly Cloudy
11:06 AM 72.0 °F 57.9 °F 61% 30.14 in 10.0 mi Variable 4.6 mph - N/A   Scattered Clouds
11:53 AM 73.9 °F 57.0 °F 55% 30.12 in 10.0 mi Variable 6.9 mph - N/A   Partly Cloudy
12:53 PM 75.0 °F 57.0 °F 53% 30.11 in 10.0 mi North 9.2 mph - N/A   Mostly Cloudy
1:53 PM 78.1 °F 55.0 °F 45% 30.10 in 10.0 mi NNW 9.2 mph - N/A   Partly Cloudy
2:53 PM 79.0 °F 54.0 °F 42% 30.09 in 10.0 mi NNW 11.5 mph - N/A   Scattered Clouds
3:53 PM 79.0 °F 52.0 °F 39% 30.08 in 10.0 mi Variable 3.5 mph - N/A   Partly Cloudy
4:53 PM 81.0 °F 51.1 °F 35% 30.07 in 10.0 mi North - - N/A   Scattered Clouds
5:53 PM 79.0 °F 51.1 °F 38% 30.07 in 10.0 mi North 6.9 mph - N/A   Partly Cloudy
6:53 PM 80.1 °F 51.1 °F 36% 30.07 in 10.0 mi NNW 6.9 mph - N/A   Partly Cloudy
7:53 PM 78.1 °F 52.0 °F 40% 30.08 in 10.0 mi Variable 3.5 mph - N/A   Clear
8:53 PM 75.0 °F 54.0 °F 48% 30.09 in 10.0 mi NW 3.5 mph - N/A   Partly Cloudy
9:53 PM 70.0 °F 57.0 °F 63% 30.12 in 10.0 mi North 3.5 mph - N/A   Mostly Cloudy
10:53 PM 68.0 °F 55.9 °F 65% 30.12 in 10.0 mi ESE 4.6 mph - N/A   Clear
11:53 PM 66.0 °F 57.9 °F 75% 30.12 in 10.0 mi Calm Calm - N/A   Clear